Location: Hackbridge
(51.3833°N, 0.1500°W)
Time: 00:56:57
(UTC+00:00)

Cosmos 1461 - Pass Details

Date: 13 October 2019
Orbit: 523 x 644 km, 65.0° (Epoch: 17 November)

Event Time Altitude Azimuth Distance (km) Brightness Sun altitude
Rises 19:03:30 0° 320° (NW) 2,686 7.1 -18.1°
Reaches altitude 10° 19:05:46 10° 328° (NNW) 1,804 6.0 -18.4°
Maximum altitude 19:09:36 40° 39° (NE) 820 3.4 -19.0°
Enters shadow 19:10:01 39° 56° (NE) 840 3.4 -19.1°
